Showing default

DUMMY SAT 3/ORION, 59479

Orbit data source: Space-Track

DUMMY SAT 3/ORION, 59479 is a payload satellite owned by Khrunichev (CIS) in GEO that was launched on Thu, 11 Apr 2024 UTC via an ANGARA A5/ORION launch vehicle from the Vostochny Cosmodrome (VOSTO). Payload-class satellites include a variety of spacecraft equipped with specific instruments for various scientific and technological missions. These include communications satellites like Starlink; space stations such as the ISS; scientific satellites like the Hubble; Earth observation satellites from companies like Planet Labs, Umbra, and HawkEye 360; GPS; miniature CubeSats for education and research; and military/defense satellites.

Not visible in the next 10 days
Identifier
59479, 2024-069A
Orbit
GEO
Country
Flag of CISCIS
Related business
Manufacturer
Khrunichev
Mission
Operational Civil Technology
Bus & Motor
GVM, Unknown motor
Mass
~20,000 kg wet, 2,400 kg dry
Launch date (UTC)
2024-04-11 (2 years ago)
Launch vehicle
ANGARA A5/ORION
Launch site
Vostochny Cosmodrome (VOSTO)
Object type
Payload
Rocket body
Debris
Shape & HBR
Cyl, 5.5 m
Radar Cross Section
37.632 m²

Expand to show TLE details & history
Last TLE update: 12 hours ago

TLE from 12 hours ago
0 DUMMY SAT 3/ORION
1 59479U 24069A   26169.43620238 -.00000118  00000-0  00000-0 0  9998
2 59479   2.1306  81.4215 0051433 134.3278 225.4711  0.98608250  7820
Epoch: 2026-06-18T10:28Z
TLE epoch observation values (Epoch: 2026-06-18T10:28:07.885Z)
Latitude
Longitude
17.10605°
Altitude
36,413.738 km
Speed
3.047 km/s
True Right ascension
05h 23m 16s
True Declination
0° 00' 00"
Sunlit
Object was in daylight at epoch
Visualization orbit readout
Latitude
Unknown
Longitude
Unknown
Altitude
Unknown
Speed
Unknown
Apparent Right ascension
Unknown
Apparent Declination
Unknown
Sunlit
N/A
Visualization observer readout
Local Sidereal Time
09:16:02
Azimuth
Unknown
Elevation
Unknown
Doppler factor
Unknown
Orbital elements
Apogee altitude
36,479.849 km
Perigee altitude
36,041.242 km
Semi-major axis
42,638.682 km
Eccentricity
0.00514
Inclination
2.1306°
RAAN
81.4215°
Arg. of periapsis
134.3278°
True anomaly
225.05282°
Mean anomaly
225.4711°
Eccentric anomaly
225.26177°
Mean motion
0.24651 °/min
Orbital period
1,460.38 mins
BSTAR
0
Loading maneuver chart data...
Computing Atmospheric mass density...
Loading historical data...
Loading historical data...
Loading historical data...
Loading historical data...
Loading historical data...
Loading historical data...
Loading historical data...
Other satellites on launch #69 in the year 2024 (2024-04-11 UTC)

Documentation

Showing up to 5 results
|